{"data":{"norad_id":63734,"epoch":"2026-05-25T04:37:54.735168Z","epoch_age_seconds":55073,"freshness":"FRESH","line1":"1 63734U 25088L   26145.19299462  .00001961  00000+0  28614-3 0  9996","line2":"2 63734  51.8990 121.0595 0000554 161.6788 198.4195 14.79927942 58836","mean_motion":14.79927942,"eccentricity":5.54e-5,"inclination_deg":51.899,"raan_deg":121.0595,"arg_perigee_deg":161.6788,"mean_anomaly_deg":198.4195,"bstar":0.00028614,"rev_number":5883,"period_min":97.302034722985,"perigee_km":629.16337012487,"apogee_km":629.93982202132,"semimajor_km":7007.6885960731,"source":"CELESTRAK","updated_at":"2026-05-25T13:38:03.927074Z"}}